Time,TemperatureF,DewpointF,PressureIn,WindDirection,WindDirectionDegrees,WindSpeedMPH,WindSpeedGustMPH,Humidity,HourlyPrecipIn,Conditions,Clouds,dailyrainin,SoftwareType,DateUTC
2013-03-21 00:03:00,66.0,62.0,29.87,WNW,287,5.0,10.0,88,0.00,,,0.00,,2013-03-21 04:03:00,
2013-03-21 00:13:00,66.0,62.0,29.87,WNW,287,5.0,10.0,88,0.00,,,0.00,,2013-03-21 04:13:00,
2013-03-21 00:23:00,66.0,63.0,29.86,WNW,302,2.0,11.0,89,0.00,,,0.00,,2013-03-21 04:23:00,
2013-03-21 00:33:00,65.0,62.0,29.87,WNW,302,3.0,8.0,90,0.00,,,0.00,,2013-03-21 04:33:00,
2013-03-21 00:43:00,65.0,62.0,29.87,WNW,302,3.0,8.0,90,0.00,,,0.00,,2013-03-21 04:43:00,
2013-03-21 00:53:00,65.0,62.0,29.86,West,281,4.0,9.0,91,0.00,,,0.00,,2013-03-21 04:53:00,
2013-03-21 01:03:00,65.0,63.0,29.85,WNW,286,4.0,9.0,92,0.00,,,0.00,,2013-03-21 05:03:00,
2013-03-21 01:13:00,65.0,63.0,29.85,WNW,286,4.0,9.0,92,0.00,,,0.00,,2013-03-21 05:13:00,
2013-03-21 01:22:00,64.0,62.0,29.85,NW,307,3.0,9.0,93,0.00,,,0.00,,2013-03-21 05:22:00,
2013-03-21 01:33:00,64.0,62.0,29.84,NW,306,4.0,10.0,94,0.00,,,0.00,,2013-03-21 05:33:00,
2013-03-21 01:44:00,64.0,62.0,29.84,NW,306,4.0,10.0,94,0.00,,,0.00,,2013-03-21 05:44:00,
2013-03-21 01:52:00,64.0,62.0,29.84,WNW,284,4.0,11.0,94,0.00,,,0.00,,2013-03-21 05:52:00,
2013-03-21 02:03:00,64.0,62.0,29.84,WNW,285,3.0,13.0,94,0.00,,,0.00,,2013-03-21 06:03:00,
2013-03-21 02:12:00,64.0,62.0,29.84,WNW,285,3.0,13.0,94,0.00,,,0.00,,2013-03-21 06:12:00,
2013-03-21 02:22:00,64.0,62.0,29.84,WNW,296,2.0,7.0,93,0.00,,,0.00,,2013-03-21 06:22:00,
2013-03-21 02:32:00,64.0,62.0,29.84,WNW,300,4.0,10.0,94,0.00,,,0.00,,2013-03-21 06:32:00,
2013-03-21 02:42:00,64.0,62.0,29.84,WNW,300,4.0,10.0,94,0.00,,,0.00,,2013-03-21 06:42:00,
2013-03-21 02:52:00,64.0,62.0,29.84,West,274,3.0,8.0,94,0.00,,,0.00,,2013-03-21 06:52:00,
2013-03-21 03:02:00,64.0,63.0,29.84,NW,308,3.0,7.0,95,0.00,,,0.00,,2013-03-21 07:02:00,
2013-03-21 03:13:00,64.0,63.0,29.84,NW,308,3.0,7.0,95,0.00,,,0.00,,2013-03-21 07:13:00,
2013-03-21 03:22:00,63.0,62.0,29.85,West,273,3.0,6.0,95,0.00,,,0.00,,2013-03-21 07:22:00,
2013-03-21 03:32:00,63.0,62.0,29.84,NNW,340,3.0,6.0,95,0.00,,,0.00,,2013-03-21 07:32:00,
2013-03-21 03:42:00,63.0,62.0,29.84,NNW,340,3.0,6.0,95,0.00,,,0.00,,2013-03-21 07:42:00,
2013-03-21 03:52:00,63.0,62.0,29.84,WNW,294,2.0,8.0,96,0.00,,,0.00,,2013-03-21 07:52:00,
2013-03-21 04:02:00,63.0,62.0,29.84,NW,304,4.0,8.0,96,0.00,,,0.00,,2013-03-21 08:02:00,
2013-03-21 04:13:00,63.0,62.0,29.84,NW,304,4.0,8.0,96,0.00,,,0.00,,2013-03-21 08:13:00,
2013-03-21 04:23:00,63.0,62.0,29.84,WNW,296,2.0,7.0,96,0.00,,,0.00,,2013-03-21 08:23:00,
2013-03-21 04:33:00,63.0,62.0,29.84,NW,305,1.0,5.0,96,0.00,,,0.00,,2013-03-21 08:33:00,
2013-03-21 04:42:00,63.0,62.0,29.84,NW,305,1.0,5.0,96,0.00,,,0.00,,2013-03-21 08:42:00,
2013-03-21 04:52:00,63.0,62.0,29.84,NW,326,3.0,5.0,96,0.00,,,0.00,,2013-03-21 08:52:00,
2013-03-21 05:02:00,63.0,62.0,29.84,NW,311,1.0,8.0,96,0.00,,,0.00,,2013-03-21 09:02:00,
2013-03-21 05:11:00,63.0,62.0,29.84,NW,311,1.0,8.0,96,0.00,,,0.00,,2013-03-21 09:11:00,
2013-03-21 05:22:00,63.0,62.0,29.85,WNW,303,2.0,9.0,95,0.00,,,0.00,,2013-03-21 09:22:00,
2013-03-21 05:33:00,63.0,62.0,29.85,NW,321,3.0,7.0,95,0.00,,,0.00,,2013-03-21 09:33:00,
2013-03-21 05:43:00,63.0,62.0,29.85,NW,321,3.0,7.0,95,0.00,,,0.00,,2013-03-21 09:43:00,
2013-03-21 05:53:00,63.0,62.0,29.85,NW,313,2.0,8.0,95,0.01,,,0.01,,2013-03-21 09:53:00,
2013-03-21 06:03:00,63.0,62.0,29.85,NW,316,2.0,8.0,95,0.01,,,0.01,,2013-03-21 10:03:00,
2013-03-21 06:12:00,63.0,62.0,29.85,NW,316,2.0,8.0,95,0.01,,,0.01,,2013-03-21 10:12:00,
2013-03-21 06:23:00,63.0,62.0,29.85,NW,315,2.0,8.0,95,0.01,,,0.01,,2013-03-21 10:23:00,
2013-03-21 06:34:00,62.0,60.0,29.86,NNW,338,2.0,7.0,94,0.01,,,0.01,,2013-03-21 10:34:00,
2013-03-21 06:42:00,62.0,60.0,29.86,NNW,338,2.0,7.0,94,0.01,,,0.01,,2013-03-21 10:42:00,
2013-03-21 06:53:00,62.0,60.0,29.86,NNW,338,2.0,7.0,94,0.01,,,0.01,,2013-03-21 10:53:00,
2013-03-21 07:03:00,62.0,61.0,29.88,NW,308,3.0,8.0,95,0.00,,,0.01,,2013-03-21 11:03:00,
2013-03-21 07:13:00,62.0,61.0,29.88,NW,308,3.0,8.0,95,0.00,,,0.01,,2013-03-21 11:13:00,
2013-03-21 07:22:00,61.0,59.0,29.88,North,360,3.0,10.0,94,0.00,,,0.01,,2013-03-21 11:22:00,
2013-03-21 07:33:00,61.0,60.0,29.88,NNW,342,1.0,8.0,95,0.00,,,0.01,,2013-03-21 11:33:00,
2013-03-21 07:43:00,61.0,60.0,29.88,NNW,342,1.0,8.0,95,0.00,,,0.01,,2013-03-21 11:43:00,
2013-03-21 07:52:00,60.0,59.0,29.89,North,11,3.0,9.0,95,0.00,,,0.01,,2013-03-21 11:52:00,
2013-03-21 08:03:00,60.0,58.0,29.90,NW,315,2.0,8.0,94,0.00,,,0.01,,2013-03-21 12:03:00,
2013-03-21 08:13:00,60.0,58.0,29.90,NW,315,2.0,8.0,94,0.00,,,0.01,,2013-03-21 12:13:00,
2013-03-21 08:22:00,60.0,58.0,29.90,NNE,29,3.0,8.0,93,0.00,,,0.01,,2013-03-21 12:22:00,
2013-03-21 08:33:00,61.0,58.0,29.90,NNE,19,1.0,8.0,90,0.00,,,0.01,,2013-03-21 12:33:00,
2013-03-21 08:43:00,61.0,58.0,29.90,NNE,19,1.0,8.0,90,0.00,,,0.01,,2013-03-21 12:43:00,
2013-03-21 08:52:00,62.0,58.0,29.90,NW,319,2.0,8.0,86,0.00,,,0.01,,2013-03-21 12:52:00,
2013-03-21 09:03:00,63.0,57.0,29.91,NNE,15,2.0,7.0,82,0.00,,,0.01,,2013-03-21 13:03:00,
2013-03-21 09:12:00,63.0,57.0,29.91,NNE,15,2.0,7.0,82,0.00,,,0.01,,2013-03-21 13:12:00,
2013-03-21 09:22:00,63.0,56.0,29.92,NNE,18,3.0,8.0,79,0.00,,,0.01,,2013-03-21 13:22:00,
2013-03-21 09:32:00,64.0,55.0,29.93,NNW,346,3.0,6.0,73,0.00,,,0.01,,2013-03-21 13:32:00,
2013-03-21 09:42:00,64.0,55.0,29.93,NNW,346,3.0,6.0,73,0.00,,,0.01,,2013-03-21 13:42:00,
2013-03-21 09:52:00,65.0,54.0,29.94,NW,321,3.0,9.0,67,0.00,,,0.01,,2013-03-21 13:52:00,
2013-03-21 10:02:00,66.0,56.0,29.95,NW,325,2.0,9.0,69,0.00,,,0.01,,2013-03-21 14:02:00,
2013-03-21 10:12:00,67.0,55.0,29.95,NE,48,2.0,8.0,66,0.00,,,0.01,,2013-03-21 14:12:00,
2013-03-21 10:22:00,67.0,55.0,29.95,NE,48,2.0,8.0,66,0.00,,,0.01,,2013-03-21 14:22:00,
2013-03-21 10:32:00,67.0,54.0,29.95,NW,311,2.0,7.0,64,0.00,,,0.01,,2013-03-21 14:32:00,
2013-03-21 10:42:00,67.0,54.0,29.95,NW,311,2.0,7.0,64,0.00,,,0.01,,2013-03-21 14:42:00,
2013-03-21 10:52:00,68.0,56.0,29.96,NW,313,3.0,6.0,65,0.00,,,0.01,,2013-03-21 14:52:00,
2013-03-21 11:04:00,69.0,56.0,29.96,North,5,3.0,9.0,64,0.00,,,0.01,,2013-03-21 15:04:00,
2013-03-21 11:12:00,69.0,56.0,29.96,North,5,3.0,9.0,64,0.00,,,0.01,,2013-03-21 15:12:00,
2013-03-21 11:22:00,70.0,55.0,29.95,North,360,3.0,7.0,60,0.00,,,0.01,,2013-03-21 15:22:00,
2013-03-21 11:33:00,70.0,56.0,29.95,NNE,26,3.0,10.0,61,0.00,,,0.01,,2013-03-21 15:33:00,
2013-03-21 11:42:00,70.0,56.0,29.95,NNE,26,3.0,10.0,61,0.00,,,0.01,,2013-03-21 15:42:00,
2013-03-21 11:53:00,70.0,56.0,29.95,NNE,26,3.0,10.0,61,0.00,,,0.01,,2013-03-21 15:53:00,
2013-03-21 12:03:00,71.0,54.0,29.95,ENE,76,4.0,10.0,54,0.00,,,0.01,,2013-03-21 16:03:00,
2013-03-21 12:12:00,71.0,54.0,29.95,ENE,76,4.0,10.0,54,0.00,,,0.01,,2013-03-21 16:12:00,
2013-03-21 12:23:00,72.0,55.0,29.94,NNE,24,1.0,5.0,56,0.00,,,0.01,,2013-03-21 16:23:00,
2013-03-21 12:33:00,73.0,55.0,29.94,NE,38,4.0,11.0,53,0.00,,,0.01,,2013-03-21 16:33:00,
2013-03-21 12:42:00,73.0,55.0,29.94,NE,38,4.0,11.0,53,0.00,,,0.01,,2013-03-21 16:42:00,
2013-03-21 12:52:00,73.0,54.0,29.94,West,281,4.0,7.0,52,0.00,,,0.01,,2013-03-21 16:52:00,
2013-03-21 13:03:00,72.0,53.0,29.94,NNE,19,4.0,10.0,52,0.00,,,0.01,,2013-03-21 17:03:00,
2013-03-21 13:12:00,72.0,53.0,29.94,NNE,19,4.0,10.0,52,0.00,,,0.01,,2013-03-21 17:12:00,
2013-03-21 13:23:00,73.0,54.0,29.93,North,5,2.0,8.0,52,0.00,,,0.01,,2013-03-21 17:23:00,
2013-03-21 13:33:00,73.0,54.0,29.93,West,260,3.0,8.0,52,0.00,,,0.01,,2013-03-21 17:33:00,
2013-03-21 13:43:00,73.0,54.0,29.93,West,260,3.0,8.0,52,0.00,,,0.01,,2013-03-21 17:43:00,
2013-03-21 13:53:00,74.0,55.0,29.92,NW,319,1.0,8.0,52,0.00,,,0.01,,2013-03-21 17:53:00,
2013-03-21 14:02:00,74.0,52.0,29.92,NW,307,3.0,10.0,47,0.00,,,0.01,,2013-03-21 18:02:00,
2013-03-21 14:12:00,74.0,52.0,29.92,NW,307,3.0,10.0,47,0.00,,,0.01,,2013-03-21 18:12:00,
2013-03-21 14:23:00,74.0,53.0,29.91,NW,311,3.0,8.0,48,0.00,,,0.01,,2013-03-21 18:23:00,
2013-03-21 14:32:00,74.0,53.0,29.91,NNW,348,4.0,9.0,48,0.00,,,0.01,,2013-03-21 18:32:00,
2013-03-21 14:42:00,74.0,53.0,29.91,NNW,348,4.0,9.0,48,0.00,,,0.01,,2013-03-21 18:42:00,
2013-03-21 14:52:00,74.0,54.0,29.90,NNE,30,2.0,10.0,50,0.00,,,0.01,,2013-03-21 18:52:00,
2013-03-21 15:02:00,75.0,52.0,29.90,NNE,24,2.0,11.0,45,0.00,,,0.01,,2013-03-21 19:02:00,
2013-03-21 15:12:00,75.0,52.0,29.90,NNE,24,2.0,11.0,45,0.00,,,0.01,,2013-03-21 19:12:00,
2013-03-21 15:22:00,75.0,51.0,29.90,WSW,240,6.0,15.0,43,0.00,,,0.01,,2013-03-21 19:22:00,
2013-03-21 15:32:00,75.0,51.0,29.90,WSW,240,6.0,15.0,43,0.00,,,0.01,,2013-03-21 19:32:00,
2013-03-21 15:43:00,75.0,51.0,29.90,WSW,240,6.0,15.0,43,0.00,,,0.01,,2013-03-21 19:43:00,
2013-03-21 15:52:00,76.0,50.0,29.88,NNE,22,4.0,9.0,40,0.00,,,0.01,,2013-03-21 19:52:00,
2013-03-21 16:02:00,76.0,50.0,29.88,WSW,244,3.0,10.0,40,0.00,,,0.01,,2013-03-21 20:02:00,
2013-03-21 16:13:00,76.0,50.0,29.88,WSW,244,3.0,10.0,40,0.00,,,0.01,,2013-03-21 20:13:00,
2013-03-21 16:23:00,76.0,54.0,29.88,ENE,61,6.0,9.0,46,0.00,,,0.01,,2013-03-21 20:23:00,
2013-03-21 16:33:00,75.0,52.0,29.88,ENE,59,6.0,10.0,45,0.00,,,0.01,,2013-03-21 20:33:00,
2013-03-21 16:42:00,75.0,52.0,29.88,ENE,59,6.0,10.0,45,0.00,,,0.01,,2013-03-21 20:42:00,
2013-03-21 16:53:00,74.0,52.0,29.88,NE,56,6.0,10.0,46,0.00,,,0.01,,2013-03-21 20:53:00,
2013-03-21 17:03:00,73.0,51.0,29.88,North,9,4.0,12.0,46,0.00,,,0.01,,2013-03-21 21:03:00,
2013-03-21 17:12:00,73.0,51.0,29.88,North,9,4.0,12.0,46,0.00,,,0.01,,2013-03-21 21:12:00,
2013-03-21 17:22:00,73.0,52.0,29.89,NE,36,4.0,10.0,47,0.00,,,0.01,,2013-03-21 21:22:00,
2013-03-21 17:33:00,73.0,51.0,29.89,NNE,17,2.0,8.0,46,0.00,,,0.01,,2013-03-21 21:33:00,
2013-03-21 17:43:00,73.0,51.0,29.89,NNE,17,2.0,8.0,46,0.00,,,0.01,,2013-03-21 21:43:00,
2013-03-21 17:53:00,73.0,50.0,29.89,NE,51,4.0,9.0,45,0.00,,,0.01,,2013-03-21 21:53:00,
2013-03-21 18:03:00,73.0,50.0,29.89,NNE,30,3.0,8.0,45,0.00,,,0.01,,2013-03-21 22:03:00,
2013-03-21 18:13:00,73.0,50.0,29.89,NNE,30,3.0,8.0,45,0.00,,,0.01,,2013-03-21 22:13:00,
2013-03-21 18:23:00,73.0,51.0,29.89,NNE,15,3.0,8.0,46,0.00,,,0.01,,2013-03-21 22:23:00,
2013-03-21 18:33:00,73.0,51.0,29.89,NE,53,3.0,8.0,46,0.00,,,0.01,,2013-03-21 22:33:00,
2013-03-21 18:42:00,73.0,51.0,29.89,NE,53,3.0,8.0,46,0.00,,,0.01,,2013-03-21 22:42:00,
2013-03-21 18:52:00,72.0,52.0,29.90,ENE,71,2.0,9.0,49,0.00,,,0.01,,2013-03-21 22:52:00,
2013-03-21 19:02:00,71.0,52.0,29.90,ENE,69,0.0,4.0,52,0.00,,,0.01,,2013-03-21 23:02:00,
2013-03-21 19:12:00,71.0,52.0,29.90,ENE,69,0.0,4.0,52,0.00,,,0.01,,2013-03-21 23:12:00,
2013-03-21 19:22:00,70.0,53.0,29.91,ENE,68,1.0,4.0,54,0.00,,,0.01,,2013-03-21 23:22:00,
2013-03-21 19:33:00,68.0,50.0,29.91,SE,124,2.0,5.0,53,0.00,,,0.01,,2013-03-21 23:33:00,
2013-03-21 19:43:00,68.0,50.0,29.91,SE,124,2.0,5.0,53,0.00,,,0.01,,2013-03-21 23:43:00,
2013-03-21 19:52:00,68.0,50.0,29.91,SE,124,2.0,5.0,53,0.00,,,0.01,,2013-03-21 23:52:00,
2013-03-21 20:03:00,67.0,54.0,29.92,ESE,114,0.0,1.0,64,0.00,,,0.01,,2013-03-22 00:03:00,
2013-03-21 20:12:00,67.0,54.0,29.92,ESE,114,0.0,1.0,64,0.00,,,0.01,,2013-03-22 00:12:00,
2013-03-21 20:22:00,66.0,54.0,29.92,ESE,114,0.0,1.0,65,0.00,,,0.01,,2013-03-22 00:22:00,
2013-03-21 20:32:00,64.0,54.0,29.92,ESE,114,0.0,2.0,70,0.00,,,0.01,,2013-03-22 00:32:00,
2013-03-21 20:42:00,64.0,54.0,29.92,ESE,114,0.0,2.0,70,0.00,,,0.01,,2013-03-22 00:42:00,
2013-03-21 20:52:00,64.0,55.0,29.92,ESE,114,0.0,1.0,73,0.00,,,0.01,,2013-03-22 00:52:00,
2013-03-21 21:03:00,62.0,54.0,29.92,ESE,114,0.0,0.0,75,0.00,,,0.01,,2013-03-22 01:03:00,
2013-03-21 21:12:00,62.0,54.0,29.92,ESE,114,0.0,0.0,75,0.00,,,0.01,,2013-03-22 01:12:00,
2013-03-21 21:22:00,61.0,53.0,29.93,ESE,114,0.0,0.0,76,0.00,,,0.01,,2013-03-22 01:22:00,
2013-03-21 21:32:00,60.0,53.0,29.93,ESE,114,0.0,0.0,77,0.00,,,0.01,,2013-03-22 01:32:00,
2013-03-21 21:43:00,60.0,53.0,29.93,ESE,114,0.0,0.0,77,0.00,,,0.01,,2013-03-22 01:43:00,
2013-03-21 21:53:00,59.0,52.0,29.93,ESE,114,0.0,1.0,79,0.00,,,0.01,,2013-03-22 01:53:00,
2013-03-21 22:03:00,58.0,52.0,29.94,ESE,114,0.0,0.0,81,0.00,,,0.01,,2013-03-22 02:03:00,
2013-03-21 22:12:00,58.0,52.0,29.94,ESE,114,0.0,0.0,81,0.00,,,0.01,,2013-03-22 02:12:00,
2013-03-21 22:22:00,58.0,53.0,29.95,ESE,114,0.0,0.0,83,0.00,,,0.01,,2013-03-22 02:22:00,
2013-03-21 22:32:00,57.0,52.0,29.95,ESE,114,0.0,0.0,83,0.00,,,0.01,,2013-03-22 02:32:00,
2013-03-21 22:43:00,57.0,52.0,29.95,ESE,114,0.0,0.0,83,0.00,,,0.01,,2013-03-22 02:43:00,
2013-03-21 22:52:00,57.0,52.0,29.96,ESE,114,0.0,0.0,84,0.00,,,0.01,,2013-03-22 02:52:00,
2013-03-21 23:02:00,56.0,52.0,29.96,ESE,114,0.0,0.0,87,0.00,,,0.01,,2013-03-22 03:02:00,
2013-03-21 23:12:00,56.0,52.0,29.96,ESE,114,0.0,0.0,87,0.00,,,0.01,,2013-03-22 03:12:00,
2013-03-21 23:22:00,56.0,52.0,29.95,ESE,114,0.0,0.0,86,0.00,,,0.01,,2013-03-22 03:22:00,
2013-03-21 23:33:00,56.0,52.0,29.96,ESE,114,0.0,0.0,88,0.00,,,0.01,,2013-03-22 03:33:00,
2013-03-21 23:43:00,56.0,52.0,29.96,ESE,114,0.0,0.0,88,0.00,,,0.01,,2013-03-22 03:43:00,
2013-03-21 23:53:00,55.0,52.0,29.96,ESE,114,0.0,0.0,88,0.00,,,0.01,,2013-03-22 03:53:00,